Location: Kershaw
(34.5481°N, 80.5823°W)
Time: 15:14:21
(UTC+00:00)

Vanguard 1 Rocket - Pass Details

Date: 07 October 2022
Orbit: 650 x 4225 km, 34.3° (Epoch: 08 December)

Event Time Altitude Azimuth Distance (km) Brightness Sun altitude
Rises 20:31:49 0° 207° (SSW) 7,937 13.0 27.7°
Reaches altitude 10° 20:37:47 10° 199° (SSW) 7,189 12.8 26.7°
Maximum altitude 21:00:03 38° 141° (SE) 5,253 11.3 22.6°
Drops below altitude 10° 21:18:29 10° 82° (E) 6,123 11.1 19.1°
Sets 21:22:52 0° 75° (ENE) 6,723 11.2 18.2°
